Theta_e
294 295 293 294 294 294 295 294 294 295 296 296 297 298 298 297 297 297 295 295 295 294 294 296 297 297 296 295 296 296 296 296 295 295 295 296 295 295 293 292 291 292 291 290 290 289 289 288 288 288 288 286 286 285 284 284 283 282 282 282 282 281 281 280 279 278 276 276 280 280 279 279 278 280 279 279 279 282 282 279 280 280 281 281 280
294 294 293 294 293 294 293 291 292 293 294 295 295 296 295 295 295 293 294 295 294 294 294 295 295 296 296 295 295 294 295 297 295 294 294 295 295 295 294 293 292 291 291 290 290 290 289 289 288 288 288 287 286 285 285 284 283 282 282 282 282 282 281 280 279 280 278 276 277 277 277 279 278 280 279 278 278 280 280 279 279 280 279 279 279
294 293 293 292 293 292 291 291 291 291 292 293 293 294 293 291 291 294 294 293 293 294 294 293 293 295 295 294 295 294 294 294 294 294 294 295 295 294 294 293 293 292 291 291 291 290 289 288 289 289 289 288 287 286 285 284 284 283 283 282 282 282 281 281 281 279 278 276 276 276 277 278 279 279 279 280 279 279 279 279 279 279 279 279 279
292 292 292 292 291 289 290 290 289 290 290 291 291 291 292 292 291 292 293 291 292 291 292 292 292 293 294 294 294 293 293 293 293 293 294 295 295 295 294 294 293 293 293 292 292 291 290 289 289 289 289 287 287 286 286 285 284 284 284 283 282 282 282 282 282 281 278 277 275 277 278 278 278 279 279 280 279 278 279 279 279 278 279 279 279
291 291 291 290 289 289 289 288 288 288 289 290 290 290 290 290 290 291 291 291 291 291 290 290 291 292 293 294 294 293 293 293 293 293 293 294 295 295 295 295 294 294 294 293 292 292 291 290 290 289 288 287 287 286 286 285 284 284 284 284 283 283 283 282 281 281 279 278 276 276 277 277 277 278 279 278 278 277 278 278 278 278 278 279 279
290 291 289 289 290 289 289 287 288 289 289 289 289 289 289 289 290 289 289 292 291 290 290 289 290 290 291 292 293 294 293 293 293 294 294 293 293 294 294 295 294 294 294 293 293 293 292 291 291 290 289 288 287 287 287 286 285 284 284 284 284 284 283 282 281 280 280 280 277 276 276 277 276 277 278 278 277 276 276 276 277 277 277 277 278
289 289 288 288 289 289 288 288 289 289 289 289 288 288 288 288 288 290 289 290 290 290 289 289 289 290 290 291 292 293 293 293 293 294 293 293 293 293 293 293 294 294 294 293 293 293 292 292 291 290 289 289 288 288 287 286 285 284 284 285 284 283 283 282 280 279 279 279 278 278 277 277 277 275 277 279 279 278 277 276 275 277 277 277 276
289 288 288 288 289 289 288 288 288 288 288 287 287 287 287 287 288 288 287 288 289 289 290 289 290 289 290 290 290 291 292 292 293 293 293 293 293 292 293 292 292 293 293 293 292 292 292 292 292 291 290 290 289 289 289 287 286 285 285 285 284 283 282 282 280 279 279 279 278 277 277 277 277 276 277 277 277 276 278 278 277 276 276 277 277
288 287 287 288 289 288 286 286 286 286 286 286 287 287 287 287 287 287 287 288 289 289 289 289 289 289 288 288 289 290 291 291 292 292 292 292 292 292 292 292 292 292 293 293 293 292 292 292 292 291 290 289 289 289 289 289 287 285 285 284 284 283 282 281 280 280 279 279 278 278 277 276 276 275 274 275 276 278 278 278 278 278 277 276 276
287 286 287 288 287 287 286 286 286 285 285 286 287 287 287 287 286 287 287 287 288 288 288 289 289 289 288 288 287 288 289 290 289 291 292 292 292 292 292 292 291 291 291 291 291 292 292 292 291 289 288 288 288 288 289 289 289 288 287 285 283 282 282 281 280 279 279 278 278 277 276 276 276 276 275 276 279 279 276 277 275 277 275 276 276
286 286 287 288 287 286 285 286 285 285 286 286 286 286 287 286 286 286 287 287 287 287 287 288 288 288 288 288 288 288 289 290 290 292 293 293 292 291 291 291 291 291 291 291 290 291 291 290 290 289 287 287 287 288 289 289 289 288 288 287 285 283 282 281 280 280 279 279 279 277 277 277 277 278 278 278 278 278 277 277 276 276 275 274 273
286 286 286 286 286 286 285 285 285 285 285 286 286 286 285 285 286 286 286 286 286 286 286 287 288 288 288 288 288 289 289 290 292 292 293 293 292 291 291 290 290 290 290 290 290 290 290 290 289 289 288 287 287 287 287 287 288 288 288 288 286 286 287 284 281 280 280 279 279 278 279 278 278 278 278 278 277 278 278 277 277 276 275 275 275
285 286 285 286 285 284 284 284 285 284 285 285 285 284 284 285 285 285 286 286 285 286 286 287 287 287 287 288 288 288 289 291 292 292 292 293 293 291 290 290 289 289 289 289 289 289 289 289 289 288 287 286 286 286 285 285 286 287 287 287 287 286 287 288 287 284 282 281 280 279 280 280 278 278 279 279 279 277 277 276 276 276 276 276 276
286 285 285 284 284 284 283 283 284 285 284 284 283 284 284 285 285 285 285 285 285 286 286 286 286 286 287 287 288 288 288 289 292 292 292 292 292 292 289 289 289 289 288 288 288 288 288 288 288 288 287 285 285 285 284 284 284 285 285 285 284 284 285 287 286 286 284 282 282 280 281 282 281 280 280 281 279 277 277 276 277 275 276 276 277
284 284 284 284 283 283 283 283 284 284 283 282 282 283 284 285 285 285 285 285 286 286 286 286 286 286 286 287 287 287 288 290 291 291 292 292 292 292 289 289 288 288 288 288 288 288 288 288 288 287 287 285 284 284 284 284 284 283 284 284 283 283 283 283 284 283 283 282 282 282 282 284 283 282 281 281 281 281 280 278 278 277 277 275 273
283 283 283 283 283 283 283 283 283 283 283 281 282 284 284 285 286 285 284 285 285 285 285 285 286 286 286 286 286 286 287 290 291 291 291 292 292 289 288 287 287 288 288 288 288 288 288 287 287 286 286 285 285 285 285 284 283 282 282 282 282 282 281 283 284 284 283 283 282 282 282 282 283 281 281 280 280 279 278 277 277 275 274 272 272
283 282 283 283 283 283 283 283 283 282 282 282 283 284 285 285 285 284 284 285 285 285 285 286 286 286 286 286 286 286 286 288 290 290 291 292 291 288 287 287 287 287 287 287 287 287 287 286 286 286 285 285 285 286 286 285 282 281 281 281 281 280 280 283 285 285 285 285 286 286 286 286 286 285 284 284 281 278 276 275 273 274 273 271 272
284 283 283 283 283 282 282 281 282 283 281 283 284 285 284 284 285 284 284 285 285 285 285 285 285 286 286 286 286 286 287 287 289 290 290 291 289 287 286 286 286 286 286 287 287 286 286 285 285 285 284 284 285 286 286 285 281 281 280 280 279 279 279 281 282 283 285 285 286 286 286 286 286 286 286 285 283 280 277 276 275 274 273 273 272
284 284 284 284 283 282 281 280 281 282 283 284 284 284 285 285 284 281 284 284 285 285 285 285 285 285 285 286 285 286 286 287 289 290 290 290 289 287 286 285 285 285 285 286 286 285 285 285 284 284 284 284 286 286 286 285 281 281 280 280 279 278 279 280 280 280 281 281 282 283 283 284 284 283 283 285 283 280 278 277 275 274 274 273 273
283 283 283 282 282 281 280 280 281 282 283 283 283 284 284 283 282 283 283 283 284 284 283 284 284 285 285 284 285 285 285 285 286 289 290 290 290 287 286 285 284 284 285 285 285 285 284 283 284 285 286 286 286 286 286 286 282 281 281 279 279 278 280 280 281 281 280 280 280 280 280 281 281 281 282 282 281 279 278 278 276 276 275 274 273
283 283 282 282 281 281 279 279 282 282 281 282 283 283 283 283 282 281 282 282 281 282 282 283 283 284 283 283 283 284 284 284 284 288 289 290 290 289 286 285 285 285 284 284 285 284 283 282 281 284 286 286 286 286 286 287 285 282 281 280 280 281 281 279 280 282 280 280 279 279 279 279 279 279 280 280 280 279 278 279 277 277 276 274 273
282 281 282 282 282 282 281 280 279 282 281 280 281 282 282 281 282 282 282 281 281 282 282 282 282 283 283 282 282 282 282 283 283 285 288 289 290 290 287 286 286 285 284 284 284 284 283 282 281 282 284 286 286 286 286 287 287 282 281 283 283 283 281 280 280 280 279 279 278 278 278 277 277 277 278 279 279 279 278 278 278 277 277 277 275
281 281 282 282 282 281 281 280 281 280 280 279 279 281 281 280 281 279 280 280 281 281 282 281 281 282 282 282 280 280 280 280 283 283 285 287 288 289 289 288 288 286 284 284 284 284 283 282 281 282 284 285 285 286 286 287 286 283 284 284 284 284 282 279 279 279 278 278 277 277 277 277 276 276 276 277 278 278 277 278 278 278 277 278 278
281 281 281 281 281 281 280 280 280 278 278 279 278 279 280 280 280 280 279 280 281 281 282 281 280 281 281 282 281 278 278 278 280 283 283 285 287 288 289 289 289 286 285 285 285 284 282 281 281 282 283 284 285 286 286 286 285 285 284 284 284 283 280 278 278 278 277 276 276 276 276 276 276 276 276 276 276 276 276 277 277 277 276 275 275
280 280 281 281 281 281 280 279 279 278 277 276 278 280 280 278 280 279 277 279 279 280 281 279 280 281 281 281 282 278 277 277 277 279 282 284 286 287 288 288 289 289 286 285 285 284 283 283 282 283 283 284 285 285 285 285 286 285 284 284 283 282 278 278 277 277 276 275 275 276 276 276 276 277 277 275 275 275 274 274 274 274 273 272 271
279 280 280 280 281 280 279 279 278 278 277 277 277 278 279 280 280 280 277 279 279 279 280 280 279 279 280 280 280 280 277 275 276 276 278 280 282 284 286 286 286 286 286 286 285 285 284 284 283 283 283 283 283 283 282 283 285 285 284 283 282 279 278 277 277 276 276 276 276 275 276 276 275 274 275 275 274 273 273 272 271 271 271 270 269
279 279 280 280 280 279 278 279 279 279 275 277 276 277 277 278 278 279 279 279 279 279 279 279 279 279 279 280 279 278 276 274 274 274 276 276 277 279 281 282 284 284 285 285 285 283 283 283 282 282 282 283 283 283 283 283 284 284 283 282 282 279 278 278 277 277 277 276 276 275 274 274 274 274 273 273 273 273 273 273 271 271 271 271 270
276 277 277 278 278 277 277 277 278 278 278 277 278 278 277 276 277 278 279 279 279 279 279 279 279 279 279 279 278 277 276 274 272 275 276 276 277 278 279 281 282 283 284 284 282 281 281 282 282 281 281 281 282 281 281 281 282 283 282 281 281 280 279 279 279 277 277 276 275 274 273 273 273 273 273 273 273 273 273 272 271 270 270 270 269
275 275 276 276 276 277 277 277 277 276 277 276 276 277 278 278 278 279 279 279 280 280 280 280 280 278 279 279 278 278 277 275 277 280 278 281 279 279 281 282 282 283 284 284 281 281 280 280 279 279 279 279 279 280 280 280 281 282 282 281 281 280 279 278 277 276 276 275 274 274 273 273 273 273 273 272 273 272 273 272 272 269 269 270 269
273 274 275 275 276 276 276 276 275 275 276 276 276 276 276 279 279 278 278 280 282 283 284 281 280 278 278 279 278 279 280 280 283 284 283 283 283 284 284 284 285 284 285 285 282 279 279 278 278 278 278 278 278 278 279 280 280 280 282 282 281 280 279 278 277 276 276 275 275 274 273 273 273 272 272 272 272 272 272 273 270 269 268 268 268
272 273 274 274 275 276 275 275 275 274 275 275 274 275 276 276 281 283 282 281 282 282 283 284 285 285 282 280 280 284 284 284 285 285 285 284 284 284 284 285 285 285 285 283 280 279 278 277 278 278 278 278 278 278 279 279 280 280 280 281 280 280 279 278 277 277 276 275 275 274 274 273 273 272 272 272 271 270 271 271 270 269 269 268 268
270 271 272 273 274 274 274 274 274 274 274 273 273 274 274 275 276 281 283 282 283 283 284 284 284 284 285 284 281 277 282 284 285 285 285 284 284 284 284 285 285 286 285 284 279 279 279 278 278 278 278 278 278 278 279 279 280 279 280 279 279 279 279 278 278 277 276 275 275 274 274 273 273 272 272 271 270 269 269 267 268 268 268 267 267
267 269 270 271 272 273 273 273 274 274 273 274 274 272 274 274 275 276 276 282 282 282 283 284 284 284 285 285 285 285 283 283 284 285 284 284 284 284 284 285 285 286 285 282 279 279 279 278 278 278 278 278 278 278 278 279 279 279 279 279 278 278 279 279 278 277 276 276 275 274 274 273 272 272 271 271 270 268 268 267 268 267 267 266 265
266 267 269 270 271 272 273 273 273 274 274 275 275 275 274 274 274 275 275 276 276 278 282 283 283 284 284 285 285 285 285 285 284 284 284 284 284 284 284 283 285 286 285 281 280 279 279 279 279 278 279 279 278 278 278 278 279 279 279 278 278 277 277 277 277 276 276 276 275 274 273 273 272 271 270 270 270 269 268 268 267 266 266 266 265
267 268 270 270 270 271 272 272 273 274 275 275 275 275 275 275 275 275 275 276 277 277 276 276 281 284 283 283 283 285 285 284 284 284 284 284 284 284 284 282 281 282 283 283 281 280 279 279 279 279 279 278 278 279 278 278 278 278 278 278 277 276 276 276 276 276 275 275 274 273 273 272 272 271 270 270 269 268 268 267 267 267 266 265 265
266 267 268 269 270 271 272 273 274 274 274 275 276 276 276 276 276 276 277 277 277 277 277 278 278 280 282 283 284 284 284 284 284 284 284 284 284 284 280 280 280 280 281 282 281 281 280 279 279 279 279 279 279 279 279 278 278 278 278 278 277 276 276 275 275 275 275 275 274 273 272 272 272 271 271 270 269 269 268 267 267 266 266 265 265
266 267 268 269 270 271 272 273 273 274 275 275 275 276 276 276 276 276 277 277 277 277 278 278 278 278 281 280 281 282 283 284 284 284 284 284 284 283 281 280 280 280 280 280 281 280 279 279 279 279 279 278 279 279 279 278 278 278 278 278 277 276 275 275 275 274 274 273 273 272 272 271 271 271 270 269 269 269 268 267 267 266 265 265 265
266 267 268 269 270 272 273 274 274 275 275 275 276 276 276 277 277 277 277 277 277 277 277 278 278 277 277 278 280 280 280 282 283 283 283 283 282 282 281 280 279 279 279 279 279 279 279 279 279 279 278 279 278 278 278 278 278 277 277 277 276 276 276 275 275 274 273 273 272 272 271 271 271 270 270 269 268 268 267 267 266 265 265 265 264
266 267 268 269 271 272 273 274 274 274 274 275 276 276 276 277 277 277 277 277 276 277 276 277 277 276 277 277 277 279 280 279 279 279 279 280 280 280 280 279 278 278 278 278 276 277 278 277 277 277 277 278 277 277 278 277 277 277 277 276 275 275 275 274 274 273 272 272 271 271 271 270 270 270 270 270 268 268 267 266 266 265 264 263 263
265 265 266 268 270 271 273 273 274 274 275 275 276 277 277 276 277 276 276 276 276 276 276 276 276 276 276 275 276 277 277 277 278 277 277 278 278 277 277 277 277 277 276 275 274 275 275 275 275 275 275 275 276 276 276 276 276 276 276 275 274 274 274 274 273 272 272 272 271 270 270 269 269 269 269 269 268 267 266 265 265 265 264 263 262
264 265 267 268 270 271 271 272 273 274 275 275 276 276 276 276 276 276 276 276 276 276 276 276 276 276 276 276 278 278 276 276 275 275 275 276 275 275 275 276 275 275 274 274 273 273 274 273 273 273 273 274 274 274 274 275 274 274 274 274 274 273 274 273 273 272 272 271 270 269 269 269 268 268 267 267 268 267 266 265 264 264 263 262 262
264 265 266 267 269 269 269 270 272 273 274 274 275 276 276 276 276 276 276 275 275 275 275 275 275 273 275 277 278 279 276 273 271 272 272 274 274 274 274 275 275 275 275 274 273 272 272 272 272 272 272 272 272 272 272 272 273 273 273 273 273 272 272 272 272 271 271 270 270 269 269 268 267 267 268 268 266 266 264 264 263 262 262 261 260
264 265 266 267 268 269 269 269 270 271 272 273 274 273 274 275 275 275 275 274 274 274 273 273 273 272 273 277 277 278 276 274 272 273 273 274 274 273 274 274 274 274 274 274 274 273 272 271 270 270 270 270 270 271 271 272 272 272 272 272 272 271 271 271 270 270 270 270 269 268 268 267 267 267 266 265 265 264 263 262 261 261 261 260 260
264 265 267 268 269 268 267 267 268 269 270 270 271 271 272 272 273 273 273 273 273 272 272 272 272 272 272 274 275 276 275 274 274 274 273 273 273 273 273 273 273 272 272 273 273 273 272 271 270 269 269 268 268 268 268 269 270 270 270 270 270 269 270 269 269 269 269 269 268 267 267 266 266 266 264 264 264 263 262 261 260 260 260 259 259
264 266 267 268 268 269 269 269 268 269 270 270 271 271 270 271 271 271 271 271 271 271 271 270 270 270 270 271 272 273 274 274 273 273 273 273 272 271 271 271 271 271 271 270 271 272 272 272 272 271 270 269 269 268 268 266 266 266 266 268 268 268 268 268 269 269 269 268 267 266 266 265 265 265 264 263 263 262 261 261 260 259 259 258 258
264 265 266 266 266 267 267 267 267 268 268 268 268 268 268 268 268 267 267 268 268 268 269 269 269 269 269 270 271 271 272 272 272 272 272 272 271 270 269 269 269 268 268 268 268 269 270 271 271 270 269 268 267 266 266 266 266 265 265 264 266 266 266 267 267 267 268 268 267 266 265 265 264 263 262 262 262 262 261 260 260 259 259 258 258
263 264 264 264 264 265 265 266 265 265 266 266 266 265 265 266 266 265 265 265 265 265 266 266 267 267 268 268 268 269 269 269 269 269 268 268 268 268 267 267 266 265 265 264 264 265 266 267 268 269 267 266 265 263 263 263 263 263 263 264 265 265 266 267 267 267 268 267 266 266 265 264 263 262 261 261 261 261 260 259 259 258 258 257 257
262 262 262 263 263 263 263 264 264 264 264 264 264 264 264 264 264 264 264 264 264 264 264 264 264 265 264 265 265 265 265 266 265 265 265 264 264 264 265 264 264 263 263 262 262 262 262 263 264 264 264 263 263 262 262 261 261 261 260 260 261 263 263 263 264 264 265 265 265 265 264 263 262 261 261 260 260 259 259 258 257 257 257 256 256
261 261 261 261 261 261 261 262 262 262 262 262 263 263 262 262 262 262 262 262 262 262 262 262 262 262 262 263 263 264 264 263 263 262 262 261 261 261 261 262 262 262 261 260 259 259 260 260 261 261 262 262 262 261 261 260 260 259 259 259 260 260 260 261 262 262 262 263 263 263 263 263 261 260 260 259 259 259 259 258 257 256 255 255 255
260 260 260 260 260 260 260 260 261 261 261 261 261 261 261 261 261 261 260 261 261 260 261 261 260 260 260 261 261 261 262 261 261 260 260 260 260 260 260 260 260 260 259 258 258 258 258 259 259 259 259 259 259 259 259 259 259 259 259 260 261 261 261 260 260 260 261 261 261 262 262 261 260 259 259 259 259 258 258 257 256 255 255 255 254
259 259 260 260 259 259 259 259 259 259 259 259 259 259 259 259 260 260 260 260 260 260 260 260 260 260 260 260 259 259 259 260 259 259 259 258 258 259 259 258 258 258 258 258 257 257 257 257 257 257 257 257 258 257 258 257 257 259 261 262 262 260 259 258 258 259 258 258 259 259 259 259 258 258 257 257 257 257 257 256 255 255 255 254 254
Wind_Speed
6 7 5 6 6 8 6 4 6 5 6 7 9 10 9 8 8 8 5 8 7 7 7 7 7 8 7 8 8 8 8 8 6 6 8 10 10 10 9 9 11 11 10 11 10 10 12 13 13 14 11 11 10 9 9 11 9 9 8 8 9 9 9 10 10 7 2 1 4 7 7 10 9 12 11 10 9 8 7 6 6 6 5 4 4
7 7 6 6 7 6 5 4 4 4 7 7 9 8 6 6 5 5 8 7 7 8 8 7 6 7 8 8 8 8 8 9 7 7 9 10 10 9 10 11 11 12 11 12 12 11 12 14 15 14 12 13 12 12 12 11 11 11 11 11 11 11 10 10 10 9 10 3 3 3 7 9 10 11 14 13 11 8 9 7 6 6 5 5 4
5 5 6 6 7 6 6 6 5 7 8 8 8 8 5 5 5 7 8 7 7 8 8 7 7 8 8 8 8 8 9 8 7 8 10 11 11 10 10 11 12 13 13 14 14 13 12 13 14 13 11 12 14 14 12 12 11 12 13 10 12 11 10 11 9 10 7 6 5 6 8 10 11 12 12 9 10 11 10 9 8 6 5 5 5
5 6 6 7 6 6 7 6 6 6 8 7 8 7 6 6 6 8 8 7 8 7 6 7 7 8 8 8 8 8 8 7 8 9 11 11 11 11 11 11 12 13 14 14 14 13 14 14 15 14 13 13 13 12 10 10 11 12 12 11 12 13 11 11 12 9 7 8 6 8 8 9 6 6 9 8 10 9 9 7 6 6 6 5 6
6 7 6 7 6 7 7 5 6 7 8 7 9 7 7 7 6 8 6 7 7 6 6 6 7 8 9 9 8 8 8 8 9 10 10 10 11 11 11 11 12 13 14 14 13 14 14 15 15 13 11 12 12 11 11 14 13 12 13 12 12 12 9 10 11 9 8 10 7 4 5 5 2 6 11 12 8 7 6 8 8 7 6 5 4
6 6 5 6 7 7 7 6 8 9 9 8 9 8 7 6 7 6 6 8 7 6 7 7 8 9 9 9 9 9 8 9 10 11 11 10 11 10 11 11 11 11 12 12 12 12 13 14 14 13 13 14 15 14 13 14 13 12 13 13 12 10 12 9 10 10 11 9 10 7 6 9 5 5 10 11 12 10 7 5 4 5 6 5 5
6 6 5 5 6 7 6 7 8 8 8 8 6 5 6 6 6 8 6 7 6 7 6 7 7 8 9 8 9 9 9 9 10 10 10 10 10 10 11 11 11 10 11 12 12 12 12 13 13 13 14 15 15 15 14 13 12 14 14 14 12 11 12 11 11 12 10 8 7 9 10 7 7 9 9 9 9 10 12 8 5 6 4 6 6
6 5 5 5 7 6 5 5 6 6 6 5 5 5 5 5 7 6 5 7 7 7 8 8 8 7 8 8 8 7 8 9 10 10 10 10 10 10 10 11 11 11 11 11 11 12 13 13 13 13 15 15 15 16 14 14 12 15 14 13 13 13 13 12 11 11 10 9 10 9 8 11 9 1 5 7 7 2 7 9 12 9 7 6 7
5 4 4 5 6 4 4 4 4 5 4 4 5 6 6 6 6 6 6 7 7 8 7 8 9 8 7 8 7 7 8 10 9 9 9 10 9 10 11 11 12 12 12 12 11 12 12 12 12 13 15 17 20 18 15 13 11 13 12 12 13 13 12 8 9 10 9 9 9 7 9 8 8 10 9 11 13 15 10 8 7 6 6 6 5
4 4 4 5 3 3 4 4 4 4 4 5 6 6 6 6 6 6 7 7 7 7 7 8 8 8 8 7 7 7 8 8 10 15 13 9 9 9 9 10 11 11 11 11 11 12 13 12 12 17 18 18 18 19 19 18 19 15 12 11 13 12 10 10 11 11 12 12 12 11 11 12 12 13 14 13 9 6 9 9 10 6 5 3 2
3 3 4 2 2 3 4 4 3 4 5 5 5 6 6 6 6 6 7 7 7 8 7 8 8 8 8 8 8 9 8 8 14 15 16 17 12 10 10 10 10 11 11 12 12 11 11 11 11 12 14 14 14 18 19 19 19 19 19 16 14 14 14 14 14 12 12 11 8 10 14 14 12 12 12 10 8 11 11 9 9 7 9 8 8
3 2 2 2 2 3 4 3 3 4 4 6 5 6 4 5 6 6 6 7 7 6 7 9 9 8 8 8 9 9 9 11 15 15 16 18 16 12 10 10 9 10 10 11 11 10 11 11 10 9 10 11 12 12 15 18 20 20 20 18 17 17 20 18 15 12 12 12 12 13 11 12 13 11 9 9 10 8 7 8 9 10 9 8 6
1 1 2 2 3 3 3 3 4 4 5 5 5 4 5 5 6 6 8 7 5 7 9 8 9 8 8 9 10 9 9 11 14 16 17 18 18 16 10 11 10 11 11 11 11 10 10 10 10 9 8 13 12 11 10 11 15 18 18 18 18 19 18 18 19 17 15 15 14 14 14 11 12 11 11 13 10 11 9 8 8 9 8 8 8
0 1 2 3 3 3 3 4 5 5 4 4 4 4 5 7 6 6 5 5 7 7 7 9 8 8 9 9 10 9 10 11 15 16 17 17 18 16 11 11 12 12 12 11 11 11 11 11 10 10 8 8 9 10 10 11 9 10 12 12 11 14 19 22 19 18 14 13 13 14 10 9 13 13 12 11 14 12 12 11 10 9 9 9 5
2 1 3 4 3 3 4 4 4 4 3 4 4 4 5 6 6 6 6 7 8 9 9 8 8 8 9 9 9 10 10 13 15 17 17 18 18 16 11 10 10 10 10 11 11 11 11 11 11 11 9 8 9 10 10 10 9 9 10 11 11 9 10 11 12 11 9 7 6 7 10 10 7 9 12 12 13 11 12 12 12 9 5 5 5
2 2 3 4 3 3 3 3 4 4 4 4 4 5 5 6 7 5 5 6 6 6 7 6 8 9 8 8 9 11 10 13 15 16 17 17 18 11 9 10 11 11 11 10 11 10 10 10 10 10 9 10 9 13 13 9 9 11 11 10 8 7 9 9 12 8 3 1 2 5 6 4 6 11 12 11 8 8 8 7 7 6 7 6 7
2 2 3 3 3 3 3 3 4 4 4 4 5 5 6 7 7 4 5 7 7 7 8 8 8 8 9 8 10 10 9 11 15 16 16 17 13 9 9 9 10 11 11 10 10 10 9 9 10 10 10 10 10 14 16 13 10 11 10 10 9 8 8 5 10 12 11 11 11 11 14 14 15 17 19 19 12 12 10 9 8 8 8 8 6
2 2 3 3 3 3 3 3 4 4 4 5 6 6 6 5 6 4 6 7 8 8 7 7 7 8 9 10 9 10 11 10 13 15 16 16 14 10 9 9 11 11 11 9 8 8 9 14 12 11 10 9 10 15 16 14 11 11 10 11 11 11 9 5 5 7 13 12 13 15 16 16 17 20 21 21 21 16 14 14 11 10 9 8 8
3 4 3 3 3 3 3 3 4 4 5 6 5 6 6 6 5 4 6 6 8 6 6 7 8 7 8 10 10 12 11 10 12 14 15 16 13 9 9 9 11 10 9 9 7 8 8 9 14 13 10 9 13 15 17 15 12 12 13 11 12 12 10 9 10 10 9 9 8 10 10 13 11 10 13 22 20 13 7 7 10 11 10 8 6
4 4 4 3 3 3 2 3 4 4 5 5 5 6 5 5 5 5 5 5 7 6 6 7 9 9 7 8 9 10 11 10 8 14 14 15 17 11 8 9 11 10 9 9 8 7 8 7 9 12 16 15 15 18 19 21 14 12 10 11 12 14 9 12 12 10 9 10 9 8 8 8 7 7 8 11 12 11 8 7 7 9 7 7 7
5 5 5 4 4 3 2 3 5 4 4 5 5 6 5 6 5 5 6 6 6 7 7 8 8 10 7 7 8 9 8 10 8 12 14 16 17 16 9 11 10 9 9 9 9 9 7 6 6 11 17 18 18 19 20 22 20 13 13 13 14 10 9 8 10 12 10 8 7 7 6 6 7 7 7 7 8 9 8 8 8 8 7 7 7
5 5 5 5 5 4 4 4 3 4 4 4 6 7 5 5 5 5 6 5 7 9 8 7 8 9 8 7 7 9 7 10 9 10 14 16 17 19 12 10 10 9 11 10 9 8 8 7 7 10 16 18 18 20 22 22 23 12 11 13 10 12 12 10 8 8 7 8 8 7 7 7 7 7 8 8 8 8 8 8 7 7 6 6 8
6 6 7 8 8 7 6 6 7 5 5 4 5 8 6 6 6 5 6 6 7 10 9 7 8 9 9 7 7 7 7 7 11 10 12 15 17 18 20 15 10 11 10 11 10 9 6 6 7 11 15 17 18 20 21 22 18 11 15 15 15 16 13 8 8 8 8 8 8 8 8 8 8 8 9 8 8 7 7 8 8 7 6 5 5
7 8 9 8 9 8 7 7 6 5 5 6 5 6 8 6 6 6 6 6 7 9 9 6 7 9 10 10 7 6 6 6 8 12 11 14 17 18 18 20 18 11 10 10 8 7 6 7 7 12 15 17 19 19 19 18 11 14 17 17 17 15 8 8 8 9 9 8 9 8 8 9 8 7 8 7 7 7 6 6 6 6 6 5 4
9 9 9 9 9 8 7 7 7 6 5 4 6 7 7 5 7 5 4 6 6 8 9 6 7 9 9 10 9 6 5 6 7 7 12 14 16 17 18 19 18 18 12 10 8 8 6 8 10 14 15 17 18 18 15 16 18 16 17 17 15 8 8 9 9 8 9 9 8 8 8 8 9 7 5 6 6 6 6 4 5 5 5 6 6
9 9 9 8 8 7 9 8 5 5 5 4 5 5 6 7 7 8 5 6 6 8 9 7 8 8 9 10 9 8 5 5 6 6 7 9 9 13 16 16 15 15 15 11 11 8 8 11 14 14 13 12 10 8 8 9 16 18 19 17 10 8 9 8 8 9 9 9 9 9 7 6 5 5 7 7 7 7 7 7 7 7 7 6 6
8 8 9 9 8 7 8 8 9 8 5 6 5 5 6 6 7 8 6 7 8 8 8 8 8 8 9 9 8 7 7 5 6 6 7 6 7 6 7 8 11 11 9 8 8 6 8 9 7 9 7 12 12 10 8 8 8 10 9 10 8 7 8 9 10 10 9 8 7 5 4 5 6 7 7 8 7 6 7 8 8 8 7 6 7
7 8 9 8 8 8 9 9 9 8 8 6 8 8 6 6 7 8 7 7 8 8 7 8 8 8 9 8 7 8 7 5 6 7 8 6 6 6 6 6 6 6 7 6 5 4 4 5 6 5 5 5 6 4 4 4 6 7 7 8 7 8 9 9 7 4 4 5 4 6 6 7 7 6 6 7 7 7 7 8 7 7 7 7 6
8 8 8 7 8 7 7 7 7 8 8 7 7 7 8 8 8 9 7 7 8 9 8 9 8 6 8 8 7 9 8 6 8 6 7 7 7 6 6 6 5 5 6 6 5 5 6 6 5 5 5 6 6 6 6 6 7 7 8 8 7 7 8 7 8 6 6 6 7 7 7 6 6 6 7 7 7 7 7 7 7 9 6 6 7
9 9 7 7 7 7 6 7 6 7 7 8 9 9 9 12 10 8 10 7 11 13 11 10 9 6 7 8 6 8 10 8 7 8 11 12 13 13 12 10 8 5 5 12 7 5 5 6 6 6 6 6 7 7 7 7 7 7 6 7 9 8 8 8 7 7 6 7 7 7 7 7 6 7 7 7 6 6 7 9 7 8 8 7 6
8 7 7 7 7 8 7 7 7 6 7 7 7 9 11 6 12 16 16 13 13 14 15 17 18 15 10 9 8 14 16 16 13 9 10 11 12 13 13 13 12 10 10 8 4 6 6 6 6 7 7 7 7 7 7 7 7 7 7 6 7 9 9 9 8 7 8 7 7 7 7 8 8 7 7 7 7 7 6 5 7 8 8 8 7
8 8 7 8 9 8 7 7 7 7 7 6 7 8 8 10 11 7 12 14 13 13 14 15 16 15 15 13 10 6 10 11 12 10 10 10 11 12 12 13 13 12 14 13 7 6 7 7 6 6 6 7 7 6 6 7 6 7 7 6 6 7 9 9 9 8 8 7 7 7 8 7 7 7 6 7 8 8 8 9 8 7 6 6 6
8 9 8 8 8 9 8 7 7 7 8 8 8 6 7 8 10 12 4 7 9 10 11 13 14 14 14 14 14 12 10 8 10 10 10 10 10 11 11 12 12 13 14 10 7 7 6 7 6 6 6 7 6 6 6 6 6 6 7 7 6 6 6 7 9 8 8 8 8 7 7 7 7 7 8 8 9 9 8 9 7 6 7 7 5
8 7 8 9 9 9 8 7 7 8 7 7 7 8 7 7 8 8 10 10 6 6 7 9 10 12 11 11 11 11 11 9 9 9 10 9 10 10 10 8 12 14 13 7 7 7 6 6 6 6 6 5 5 5 6 6 6 6 5 6 5 5 5 6 7 8 7 8 8 8 8 8 8 9 8 7 7 8 8 7 7 7 6 7 7
9 8 12 10 8 8 8 7 8 8 8 7 7 7 8 7 7 8 8 9 9 9 7 6 6 6 6 6 7 8 7 8 8 9 9 9 9 10 10 6 6 7 9 8 6 5 6 6 6 5 5 5 5 6 6 6 6 6 6 6 5 6 6 7 7 7 8 8 8 8 9 9 9 9 9 8 7 7 7 8 7 8 8 7 7
9 9 10 10 9 8 8 8 7 7 8 8 8 8 7 7 7 7 7 8 8 8 7 5 3 4 7 7 8 8 9 9 9 10 10 11 11 10 6 6 5 5 4 4 5 4 4 5 5 5 5 5 5 6 6 6 7 7 6 7 7 7 7 7 7 8 8 8 8 9 8 8 9 8 7 8 11 10 9 9 8 7 7 7 7
8 8 8 8 9 9 9 8 7 8 8 8 8 8 7 7 7 7 7 7 7 7 7 6 5 5 4 3 4 6 7 9 10 10 10 10 12 8 5 5 4 4 4 4 4 5 5 5 5 5 5 6 6 6 6 6 6 6 6 6 6 7 7 7 7 7 7 7 7 8 9 9 9 9 10 9 7 7 7 8 7 8 7 8 8
9 8 9 10 10 10 9 8 8 8 8 7 7 7 7 7 7 7 7 7 7 7 6 6 4 5 5 4 2 1 3 4 6 7 7 8 6 4 4 4 4 4 4 3 3 4 4 4 5 6 5 5 5 5 5 5 5 5 5 5 6 6 8 8 8 7 7 7 7 7 8 8 8 8 8 9 9 8 7 7 8 7 6 8 7
8 11 15 18 14 10 9 9 8 7 7 7 7 6 7 6 6 6 6 6 6 6 5 5 5 5 5 3 3 2 1 2 2 3 2 2 2 2 3 3 3 2 2 2 2 2 3 3 3 3 4 4 5 5 5 5 5 5 5 5 5 5 7 5 6 6 7 7 6 6 7 7 7 7 7 7 7 8 8 8 8 8 8 7 7
8 8 10 15 11 10 9 8 8 8 7 7 7 6 6 6 6 6 6 5 6 6 5 5 5 5 3 2 3 2 3 3 3 2 1 1 1 1 0 1 2 3 2 1 1 2 3 2 2 3 3 3 3 4 4 4 5 5 5 6 6 6 7 7 7 7 7 6 7 6 6 6 6 6 6 6 7 7 8 8 7 7 7 7 7
8 8 8 9 11 10 9 9 8 8 7 6 7 6 7 6 6 5 5 5 6 5 5 4 5 4 3 3 6 5 3 3 2 1 1 1 1 1 1 1 1 1 1 3 2 2 3 3 3 2 2 2 3 3 3 4 4 4 5 5 5 6 6 6 6 7 7 7 7 7 6 6 7 7 7 5 6 7 7 7 7 6 6 7 7
8 9 9 8 9 8 8 8 7 8 8 6 6 6 6 5 6 5 4 5 4 4 5 5 4 3 3 6 6 7 3 2 2 2 1 1 1 1 2 2 1 2 2 3 3 3 3 3 3 3 3 3 3 3 3 3 4 4 5 5 6 6 6 6 6 7 7 7 7 7 7 7 7 7 7 7 7 7 7 7 7 6 6 6 6
9 8 8 8 8 8 8 8 7 7 6 6 6 5 5 5 5 3 4 3 4 4 4 5 4 3 3 5 5 6 3 2 2 3 2 2 2 2 2 2 2 2 2 3 3 3 4 3 3 4 4 4 4 4 5 5 5 5 5 5 5 6 6 6 6 6 6 6 7 7 7 7 7 6 6 6 7 7 7 7 7 6 6 7 7
9 8 8 8 8 7 7 6 6 6 5 6 6 3 3 4 4 3 4 4 4 3 3 4 4 3 3 4 4 4 3 2 2 2 2 2 2 2 2 2 1 1 1 1 2 3 4 4 3 3 3 3 3 2 2 2 4 4 5 5 5 5 5 5 6 6 6 6 6 7 7 7 7 7 6 6 7 8 7 7 7 7 7 7 7
7 8 8 8 8 7 8 7 7 7 7 5 5 4 3 4 4 4 4 3 3 3 3 4 4 3 3 3 3 3 3 2 1 1 2 3 2 2 2 1 1 1 2 2 2 1 1 2 3 3 3 2 3 3 3 4 3 4 5 5 5 5 6 6 6 6 7 8 7 7 7 7 7 7 7 7 8 8 8 8 8 7 7 7 7
8 8 8 8 8 8 7 7 7 7 6 6 6 5 5 5 5 5 4 4 4 4 4 4 4 4 3 4 4 3 3 3 2 1 1 2 2 2 2 2 2 3 3 3 3 3 2 1 2 2 3 3 3 3 3 3 3 3 4 4 6 5 5 5 5 6 7 7 7 7 7 7 7 6 8 7 7 7 7 7 7 7 8 8 8
8 7 8 7 8 7 7 7 7 7 6 6 6 6 6 6 6 5 4 5 5 3 4 5 5 5 5 5 4 4 3 4 3 4 4 4 4 3 3 3 3 3 3 3 3 3 3 3 2 3 4 3 3 3 3 3 3 3 3 3 4 5 4 5 6 6 6 6 7 8 8 8 7 6 6 7 6 6 7 7 8 8 7 7 7
8 8 8 8 7 7 7 7 7 8 6 6 6 6 6 6 7 6 5 5 5 4 4 4 4 4 4 5 4 4 4 4 4 3 4 5 5 4 4 4 4 3 3 3 4 4 4 4 4 3 4 3 3 3 3 3 3 3 3 3 3 4 6 6 5 5 5 6 6 7 8 8 7 8 8 9 8 7 7 6 6 5 6 6 6
8 8 8 8 7 8 7 7 7 7 7 6 6 6 6 6 6 6 6 6 6 6 5 4 4 4 4 4 3 4 4 3 5 5 4 4 5 4 4 4 4 4 4 4 4 4 4 4 4 4 3 3 3 3 3 3 3 3 3 3 4 8 8 8 6 6 7 7 6 6 6 7 8 8 8 8 7 7 7 7 7 7 6 6 6
6 7 7 7 7 7 7 7 7 6 7 6 6 6 6 6 5 6 6 6 6 6 6 6 5 5 4 5 4 4 5 4 4 4 4 3 4 4 4 4 5 5 4 4 4 4 4 5 5 5 5 4 4 4 3 3 3 3 3 4 7 8 8 7 8 8 6 5 6 6 6 6 6 6 6 6 6 7 7 7 7 6 7 7 7
7 7 6 6 6 6 6 6 6 7 7 7 7 6 6 6 6 6 6 6 6 6 6 7 6 6 6 5 4 5 5 4 4 3 3 3 3 3 3 4 4 4 3 3 3 4 4 4 4 5 5 5 4 4 3 3 3 2 5 8 8 8 8 6 6 6 6 5 5 5 6 7 7 7 6 5 6 6 6 7 7 7 6 6 6
Wind_Direction
200 219 208 227 232 234 237 234 233 228 233 227 229 230 222 212 211 209 203 213 200 205 205 206 206 207 211 215 218 220 220 221 212 207 208 216 217 213 207 201 210 219 214 217 216 214 216 222 225 226 224 219 220 219 218 215 209 211 202 206 218 212 198 202 212 225 265 263 169 182 167 156 179 191 181 181 182 187 176 180 180 191 194 195 202
205 207 206 209 220 233 241 235 228 230 235 236 238 242 243 232 217 206 215 217 199 208 207 206 204 207 213 216 215 219 221 222 213 207 215 219 221 213 211 206 211 218 211 218 214 215 217 221 227 227 219 220 219 221 216 213 210 211 209 203 211 215 212 201 215 208 214 144 155 125 156 177 180 185 186 179 183 176 177 179 182 188 187 184 196
202 200 206 214 225 223 224 223 212 222 228 234 238 240 241 238 220 219 223 219 212 209 209 205 204 208 217 219 217 217 216 219 212 210 221 221 221 219 214 212 213 215 216 219 217 213 216 220 226 224 219 219 219 221 215 215 212 215 217 208 213 216 211 214 207 221 204 211 174 166 178 184 189 182 189 183 173 174 178 182 182 184 181 183 198
208 198 203 217 219 221 226 219 214 223 231 233 239 237 229 229 219 225 227 216 218 218 210 208 208 211 219 222 220 219 217 215 216 216 222 222 224 224 219 218 219 220 220 222 219 214 216 220 227 224 219 219 223 226 224 219 211 214 216 213 214 216 211 212 220 211 196 180 196 192 186 173 182 162 173 163 164 175 186 176 169 181 177 186 197
210 209 199 213 218 221 228 213 218 225 231 230 235 231 228 229 225 227 224 225 224 213 219 211 214 215 220 224 223 221 218 214 219 223 224 223 225 227 226 224 224 225 225 225 222 219 219 220 226 221 217 220 223 221 217 218 217 215 215 214 214 214 207 214 218 210 189 194 169 183 166 181 146 164 167 160 161 162 166 180 178 177 185 189 190
219 209 199 208 225 226 227 212 222 227 229 233 234 231 232 231 234 237 225 232 228 220 214 213 215 221 222 223 221 224 218 218 223 226 225 223 226 229 232 232 231 230 231 230 228 224 223 224 226 219 216 216 222 220 218 219 218 221 221 218 215 207 209 211 216 217 211 197 164 147 178 177 168 177 182 173 164 166 151 140 140 173 169 175 200
216 208 200 212 228 234 223 222 225 231 231 236 237 235 234 235 234 238 229 231 233 227 223 222 225 224 228 221 221 222 221 221 225 227 228 226 226 228 232 236 237 236 233 232 230 230 229 228 226 219 219 218 221 220 218 217 212 217 217 219 214 207 208 209 206 212 209 184 181 175 166 184 180 173 186 186 178 170 165 154 183 190 180 187 208
212 206 198 219 231 239 227 228 229 236 239 238 238 239 238 235 234 240 234 235 234 233 227 225 232 227 231 227 226 220 223 227 228 228 227 226 226 228 229 233 236 238 237 234 231 231 231 230 228 225 223 222 220 224 217 218 210 216 216 211 209 205 210 205 200 204 203 193 181 173 181 172 180 62 129 151 146 153 187 176 189 187 188 191 204
208 202 208 228 238 238 241 237 234 237 236 238 239 238 233 234 234 233 232 237 234 234 232 229 234 235 232 229 229 220 224 229 228 226 227 229 226 231 230 232 233 237 239 238 235 234 234 234 233 231 228 229 227 228 226 221 212 219 220 206 210 207 209 202 201 201 200 190 188 174 167 175 180 158 165 181 183 187 180 161 184 173 163 154 199
202 210 223 242 264 248 236 235 230 231 234 235 239 237 236 235 233 235 235 234 237 236 236 236 235 238 238 236 232 228 231 231 230 227 224 226 227 232 234 235 233 236 239 241 239 234 234 233 235 232 233 233 234 234 232 227 222 221 221 203 206 204 194 198 200 201 197 197 192 171 177 187 183 182 176 187 179 106 132 170 166 160 113 154 178
206 218 247 267 250 236 231 238 226 233 233 238 240 237 237 232 233 236 238 235 235 236 235 241 238 237 237 236 235 233 235 234 232 228 229 229 231 236 237 240 235 236 236 238 241 239 239 237 240 236 236 237 236 235 235 234 232 230 229 217 209 194 190 199 203 198 200 205 189 186 191 187 187 181 183 167 171 168 173 172 167 152 179 184 217
200 219 240 259 251 242 241 243 237 241 232 239 237 238 238 234 237 237 239 239 238 234 236 236 239 238 239 238 239 239 239 235 236 236 234 232 229 233 237 240 238 238 237 238 240 240 240 239 237 233 230 229 231 234 236 235 233 231 229 225 217 209 207 198 197 197 197 196 201 204 190 193 178 179 171 153 170 165 158 159 170 179 183 196 198
182 235 254 254 265 257 249 240 239 239 237 239 239 237 235 241 241 239 239 238 237 232 238 238 240 238 236 241 243 242 247 239 239 236 237 237 235 232 237 236 239 239 237 237 238 239 240 241 243 233 230 225 227 229 230 234 234 234 231 230 225 216 222 230 213 201 196 198 198 200 201 178 173 185 179 177 159 157 153 172 181 184 182 190 199
128 273 295 277 257 244 236 233 240 240 235 233 230 232 231 239 241 236 244 243 237 243 243 241 241 239 236 240 245 244 244 240 238 239 238 237 237 236 240 237 239 239 237 235 237 237 237 239 242 241 228 221 218 220 223 229 226 228 230 227 224 221 224 228 232 224 213 206 198 203 205 182 183 183 179 152 153 168 174 187 176 178 187 195 154
287 255 268 262 252 242 236 238 252 258 247 241 238 241 242 255 251 241 230 237 238 237 240 242 241 239 240 240 246 247 246 240 238 239 240 239 238 237 241 241 244 244 241 238 238 238 237 238 239 243 235 223 217 208 218 221 221 225 224 224 221 219 221 227 228 227 226 230 233 218 199 197 191 159 159 168 175 174 177 177 173 168 136 78 63
271 270 265 264 259 253 239 258 266 269 267 257 250 254 251 246 253 245 231 243 244 246 252 240 246 244 241 240 244 251 249 241 241 240 240 240 240 239 240 242 245 246 244 238 237 236 236 235 240 240 237 232 217 205 211 205 215 220 222 223 222 219 224 220 221 212 164 125 148 146 155 175 164 159 158 158 141 119 97 86 103 126 139 151 184
270 256 263 279 277 270 249 252 267 269 261 263 259 256 255 254 251 232 237 241 242 238 243 238 240 244 246 241 244 254 254 242 241 242 242 241 240 240 238 242 245 246 246 240 238 236 233 230 231 238 235 234 214 206 211 193 214 215 215 216 216 215 219 196 190 168 165 156 150 158 160 160 156 154 154 152 145 135 123 123 166 158 155 177 191
298 293 290 281 269 259 245 239 260 270 266 258 261 262 255 255 253 230 231 245 245 242 244 249 242 238 242 244 236 250 254 242 238 241 241 240 234 236 235 239 246 244 250 242 238 235 228 225 224 230 233 231 209 206 208 193 206 207 205 210 212 213 208 166 139 162 167 156 151 155 162 160 155 155 157 160 154 150 157 178 170 152 179 185 190
321 307 295 280 267 257 249 244 254 268 271 265 259 265 261 257 252 228 237 245 254 256 252 252 254 244 239 245 241 243 256 250 237 241 239 239 236 236 235 238 247 246 247 249 233 233 231 224 222 223 226 220 207 206 204 194 202 202 205 207 214 215 203 173 174 161 162 150 150 153 162 164 162 154 161 162 159 162 167 137 147 170 182 188 162
312 304 304 308 300 288 266 258 260 259 269 276 271 265 272 279 269 258 256 246 262 258 255 254 259 258 244 245 246 241 252 255 237 241 240 239 236 233 231 236 245 249 245 245 244 234 225 224 219 217 224 218 211 206 207 199 198 203 196 204 210 218 189 189 192 176 169 166 163 164 160 155 145 143 154 160 163 169 169 157 158 171 176 174 175
328 322 315 311 307 289 268 253 278 274 262 276 283 287 281 277 280 271 270 267 262 269 259 261 262 266 254 247 249 249 241 255 247 237 241 241 239 234 236 234 239 243 247 243 239 241 231 217 215 213 220 221 211 209 208 203 200 201 201 207 211 206 170 180 191 186 181 168 156 153 149 147 149 156 163 165 167 171 173 171 171 175 171 170 177
320 320 315 314 312 318 326 318 294 296 302 304 303 290 282 272 269 270 271 272 273 269 268 264 266 269 265 249 247 253 244 241 253 243 242 242 242 237 237 239 229 237 244 246 242 239 230 210 213 209 217 218 212 208 209 208 206 197 206 210 195 170 171 183 179 175 172 163 159 160 159 158 160 163 174 181 182 171 172 176 174 177 184 184 182
332 331 331 331 333 331 330 326 319 322 307 297 287 288 292 293 280 268 269 272 267 273 272 269 271 275 275 262 245 249 245 246 243 247 241 240 242 242 240 242 221 229 238 246 241 239 223 209 210 207 212 216 213 210 212 213 211 199 199 202 193 192 183 174 174 173 169 167 162 166 169 168 169 182 182 182 183 163 163 173 175 172 174 174 180
343 339 336 330 326 325 322 317 309 303 297 298 292 286 292 286 281 269 264 260 271 273 273 267 269 272 277 281 261 242 243 244 244 244 248 244 244 244 244 244 241 235 235 245 246 234 216 209 201 201 208 214 214 213 211 211 205 200 198 200 196 197 171 168 173 178 173 172 175 171 174 184 181 178 188 181 166 157 146 145 154 154 154 145 121
342 332 326 322 317 313 311 307 304 298 293 289 296 294 290 290 290 277 245 266 259 268 274 269 266 273 278 275 280 267 242 246 254 254 253 253 250 249 249 249 248 245 243 247 238 235 215 194 188 197 206 212 213 211 212 210 209 197 196 194 191 179 167 171 176 171 180 184 181 185 189 187 185 177 146 134 125 116 124 113 109 107 102 95 78
330 322 315 309 307 308 310 306 296 293 296 287 274 278 282 292 285 286 272 264 264 263 274 274 268 268 271 275 276 277 265 253 260 257 255 256 256 254 254 256 256 253 250 248 242 219 192 190 190 196 203 207 207 205 206 208 210 201 199 191 188 173 171 170 173 177 186 186 190 194 189 166 142 126 126 130 144 163 152 145 130 117 132 125 108
313 312 310 311 311 317 315 315 317 317 315 309 291 281 281 274 274 274 267 267 266 263 264 268 270 268 269 274 277 277 271 259 257 262 257 253 254 257 260 262 260 259 259 249 235 203 194 184 179 187 189 200 200 203 205 209 213 206 197 193 186 165 174 178 180 184 187 184 187 175 132 122 113 122 151 159 164 165 162 153 152 153 146 150 141
314 310 311 311 312 318 313 310 312 307 308 308 305 300 278 258 264 261 257 251 260 265 261 260 260 263 270 273 279 281 275 263 254 250 256 244 249 248 245 250 246 239 240 233 195 168 150 152 167 175 174 192 198 199 205 205 209 206 197 194 186 169 181 180 175 160 154 150 129 120 117 135 152 158 150 165 169 164 162 160 156 141 150 147 151
323 319 318 315 309 309 301 301 299 300 297 293 266 257 274 276 260 268 247 227 239 256 266 265 260 247 256 266 274 282 277 262 252 238 241 235 230 235 240 240 238 237 231 170 126 135 143 153 162 168 173 182 194 200 202 203 212 209 198 193 184 168 169 177 178 171 158 139 149 150 148 146 153 160 165 168 173 162 159 151 152 145 147 162 174
322 314 308 301 294 295 294 292 290 289 287 289 294 285 235 233 253 258 279 248 233 242 245 258 263 255 258 255 223 247 268 268 270 252 239 236 239 239 240 240 241 228 202 170 156 153 165 164 177 175 182 185 195 203 203 201 202 205 207 188 182 180 174 179 178 166 156 158 152 150 156 157 162 170 178 171 152 150 160 160 147 151 153 174 175
307 302 304 301 300 299 296 292 286 279 281 286 289 293 306 274 241 251 260 264 259 258 257 259 268 267 255 266 259 256 264 271 267 244 234 235 235 240 243 245 241 219 182 151 153 170 172 180 188 187 189 190 197 203 203 202 198 195 199 188 180 178 176 178 179 166 164 162 161 159 157 165 172 173 175 166 151 144 147 146 148 162 170 167 174
307 305 304 298 299 295 290 289 292 294 292 283 280 293 295 301 303 243 239 264 269 259 260 262 263 265 265 260 260 267 265 260 252 238 229 234 238 242 246 243 237 215 185 167 173 191 192 191 191 193 189 194 200 198 202 203 200 194 189 184 176 180 175 178 170 160 162 161 162 164 166 170 165 166 165 160 157 161 162 146 156 162 157 156 173
305 304 301 298 297 297 297 297 296 294 294 296 292 279 282 292 294 307 274 241 272 282 269 266 267 266 265 263 258 252 246 238 238 234 231 232 238 243 248 247 239 225 203 194 192 195 194 197 195 192 189 198 198 193 201 201 201 196 189 191 182 180 178 164 155 160 167 171 165 167 163 161 160 166 172 167 166 169 166 164 160 152 151 155 163
295 294 300 301 299 296 295 290 290 289 283 282 284 287 279 270 279 282 299 305 285 264 270 264 259 261 266 262 257 257 258 245 235 235 234 233 239 247 246 244 237 227 212 204 200 201 193 193 196 194 195 195 194 189 197 202 201 199 192 192 178 155 158 146 155 166 165 164 165 165 163 166 165 169 174 171 171 162 161 165 155 156 166 169 168
315 299 300 300 297 293 293 291 290 290 293 290 286 282 278 275 266 275 279 284 290 295 291 289 284 276 268 274 282 278 266 254 241 241 241 239 242 246 247 241 232 229 218 209 206 196 196 193 193 193 187 189 188 188 194 194 195 197 196 188 169 156 155 166 173 168 167 167 166 170 171 168 173 175 167 165 161 168 170 166 171 170 167 169 168
316 314 313 310 301 295 292 293 289 289 289 288 284 277 277 276 273 270 268 268 276 280 286 277 268 279 290 284 275 273 266 259 250 248 245 242 242 237 231 229 228 231 227 221 207 203 185 190 184 188 180 183 181 188 189 188 193 192 191 183 179 174 174 177 174 172 174 172 173 167 166 170 173 170 167 169 172 173 172 172 171 173 170 169 169
307 305 305 304 301 295 293 287 283 277 276 277 277 274 267 264 262 265 264 271 273 274 278 286 295 290 269 251 253 262 270 262 253 248 246 243 242 236 219 223 220 221 221 218 194 175 186 185 179 180 179 181 184 184 182 188 186 186 187 185 176 175 181 179 178 171 170 171 168 169 172 172 171 172 165 169 174 172 170 166 165 168 170 166 161
300 302 306 305 300 296 292 289 287 280 281 280 276 269 265 262 259 260 267 269 270 275 277 278 273 267 274 272 344 294 280 301 272 259 256 248 245 233 222 203 211 210 220 204 193 182 187 176 176 181 180 179 180 176 177 179 178 176 176 172 174 182 182 181 181 172 174 168 168 169 169 171 171 169 168 169 170 170 167 163 161 162 162 165 165
305 300 300 304 301 294 292 294 293 290 282 276 269 266 267 270 269 267 266 264 270 268 271 272 267 265 264 295 294 294 278 268 235 243 262 261 241 235 201 185 188 213 198 171 110 134 138 160 157 152 167 178 179 179 180 178 172 173 168 165 169 166 174 167 170 168 170 170 166 167 168 167 164 170 171 167 167 163 160 159 164 162 163 172 178
304 303 302 302 299 296 295 294 291 287 281 282 283 280 278 270 267 267 267 272 271 271 267 268 267 264 271 302 275 280 246 242 242 253 265 306 316 37 62 167 184 182 177 113 97 106 105 102 115 130 152 163 174 174 181 170 176 174 166 171 167 177 177 172 170 170 175 167 164 165 165 163 163 162 168 171 161 155 158 164 167 167 168 169 167
295 296 298 298 297 299 299 297 293 289 293 288 286 285 277 275 273 271 267 268 267 269 264 262 269 274 262 252 267 260 234 249 252 250 202 194 54 68 67 72 96 108 114 130 129 121 129 138 146 152 151 165 169 172 173 168 164 166 176 176 174 181 172 172 172 170 169 163 165 162 163 158 160 162 168 160 144 151 157 156 160 166 164 160 157
303 301 300 299 298 295 294 294 292 295 291 286 282 280 282 282 279 271 272 269 272 270 275 274 269 272 267 267 265 269 248 185 180 193 209 151 126 106 122 119 136 147 163 159 165 162 157 155 168 172 179 179 174 180 162 174 171 177 180 180 182 177 176 177 175 171 168 165 163 166 165 162 162 166 157 149 153 154 151 158 160 157 154 154 155
301 297 291 289 297 298 298 297 298 297 296 302 299 302 298 295 290 287 280 278 281 283 287 290 295 305 296 290 283 282 267 220 188 200 197 192 158 139 137 158 169 173 177 171 174 167 165 169 173 189 191 194 191 186 191 192 187 184 184 186 186 185 183 173 168 168 161 161 163 160 157 154 156 157 154 154 152 150 154 151 150 155 159 159 163
301 297 295 302 305 300 300 301 308 306 309 302 296 303 315 315 313 313 313 306 307 302 299 298 306 310 303 312 310 305 291 265 230 213 193 179 160 136 112 95 105 102 116 137 152 154 155 160 172 181 178 177 171 169 181 179 172 185 185 182 185 185 179 173 171 167 162 158 152 154 156 156 154 152 152 153 150 149 149 154 157 162 161 168 166
294 308 314 319 322 326 328 331 331 326 324 322 334 334 340 347 344 347 350 343 348 345 343 338 340 332 324 318 314 310 307 294 239 209 207 190 163 127 102 71 61 57 48 39 17 41 134 166 160 152 155 144 150 155 161 161 169 175 177 173 176 180 184 178 179 167 160 156 155 153 153 152 157 156 154 157 159 158 160 168 166 160 161 164 171
318 321 324 327 328 334 339 339 345 342 342 345 338 345 349 355 357 3 3 2 2 356 351 355 349 348 347 341 340 346 347 355 3 1 39 55 65 59 52 46 47 32 35 28 13 14 25 45 124 138 132 123 115 100 97 109 120 131 150 166 171 179 174 161 148 150 159 156 155 155 154 155 157 161 160 160 165 166 166 164 163 171 174 174 184
329 331 335 336 336 334 338 345 347 347 348 353 355 350 350 354 359 4 11 15 8 9 11 3 359 357 349 357 356 356 356 5 7 14 16 17 26 33 32 34 40 46 32 24 24 18 13 25 39 95 115 109 95 89 72 57 68 70 69 93 117 124 130 145 151 155 154 153 151 148 153 155 154 149 154 152 153 161 155 165 170 172 172 171 173
337 340 339 339 338 339 342 345 349 350 352 355 3 0 2 2 360 360 352 354 6 12 12 16 18 5 6 4 360 0 1 2 15 24 19 20 18 17 19 22 26 28 33 28 20 16 23 6 9 35 69 91 94 82 72 77 57 64 60 47 65 107 124 125 123 122 127 132 144 149 153 154 157 159 162 165 166 162 160 163 160 165 164 166 166
344 347 347 347 347 345 344 345 350 356 354 350 355 4 9 10 12 6 356 358 359 356 359 2 11 8 18 4 357 5 13 21 24 22 21 16 13 14 15 19 23 25 26 25 21 17 21 23 24 27 62 70 86 105 109 98 92 73 88 99 114 122 123 126 131 136 134 131 132 138 142 148 154 159 160 162 161 162 163 154 161 162 160 158 157
342 344 347 348 349 345 345 346 350 355 354 356 0 3 2 6 4 7 1 360 359 357 355 353 358 1 6 2 8 8 14 20 18 19 14 13 11 11 15 26 29 30 29 23 22 16 19 19 26 25 28 36 56 60 53 64 65 80 75 96 108 104 104 101 103 121 126 126 133 140 139 138 135 141 150 154 152 156 156 160 160 157 160 161 166
347 346 345 351 349 344 346 351 354 359 359 359 1 2 360 2 4 2 3 2 2 0 355 355 354 357 6 10 8 9 11 11 13 12 10 17 12 17 27 34 32 37 40 34 29 33 32 28 32 30 35 39 35 33 39 52 57 78 112 110 102 98 95 95 95 95 95 98 110 117 129 137 142 142 146 148 148 156 159 150 154 158 162 164 159